Find Starlink 32809

NORAD ID: 62849 Int'l Des: 2025-019 Owner: SPXS Country: US Constellation: starlink operational
LEOCIRCULAR

現在のビュー

3D地球を読み込み中...

About Starlink 32809

Starlink 32809 (NORAD 62849) is a starlink constellation satellite (v2 mini) launched Jan 27, 2025 by SPXS of US. It operates in LEO, CIRCULAR orbit with a mass of 730.00 kg.

次回通過

Passes for default location (London). Set your location on the main map for personalized predictions.

高度履歴

Loading altitude history...

軌道要素

1 62849U 25019W 26262.88209765 .00017773 00000-0 65325-3 0 9998
2 62849 43.0021 71.9809 0002704 275.9747 84.0796 15.27606819 91952
Epoch: Sep 19, 2026 • Age: 18 hours

現在のステータス

高度 488.2 km
遠地点 / 近地点 N/A
速度 7.62 km/s
衛星直下点 -25.17°S, 47.48°E
打ち上げ日 Jan 27, 2025
運用期間 1.6 years
タイプ internet

技術仕様

分類 Payload
質量 730.00 kg
乾燥質量 700.00 kg
長さ 0.30 m
スパン 29.00 m
形状 ? Box + pan
製造者 SPXS
バスタイプ Starlink V2M
フェーズステータス In Orbit
所有者/国 SPXS/US

Most Searched